CW4279 Weather Reports


Display with metric or nautical units.
time (UTC)temp
F
wind
direction
speed
MPH
gust
MPH
rain 1hr
in
rain 24hr
in
rain mn
in
humidity
%
barometer
mb
20260903050016 66 117 0.0 0.0 0.00 0.00 0.00 96 1043.9
20260903045510 66 117 0.0 0.0 0.00 0.00 0.00 96 1043.9
20260903045007 66 117 0.0 0.0 0.00 0.00 0.00 96 1043.9
20260903044502 66 117 0.0 0.0 0.00 0.00 0.00 96 1043.9
20260903043958 66 117 0.0 1.0 0.00 0.00 0.00 96 1043.7
20260903043453 66 117 0.0 0.0 0.00 0.00 0.00 95 1043.6
20260903042952 67 117 0.0 1.0 0.00 0.00 0.00 95 1043.7
20260903042447 67 117 0.0 0.0 0.00 0.00 0.00 95 1043.7
20260903041943 67 117 0.0 1.0 0.00 0.00 0.00 95 1043.7
20260903041439 67 117 0.0 0.0 0.00 0.00 0.00 94 1043.7
20260903040935 67 117 0.0 0.0 0.00 0.00 0.00 94 1043.8
20260903040433 67 117 0.0 1.0 0.00 0.00 0.00 94 1043.6
20260903035930 67 117 0.0 0.0 0.00 0.00 0.00 94 1043.8
20260903035425 68 117 0.0 0.0 0.00 0.00 0.00 94 1043.7
20260903034920 68 117 0.0 0.0 0.00 0.00 0.00 93 1043.9
20260903034415 68 117 0.0 0.0 0.00 0.00 0.00 93 1043.8
20260903033910 68 117 0.0 0.0 0.00 0.00 0.00 92 1043.8
20260903033405 68 117 0.0 0.0 0.00 0.00 0.00 92 1044.0
20260903032906 69 117 0.0 0.0 0.00 0.00 0.00 91 1044.0
20260903032401 69 117 0.0 1.0 0.00 0.00 0.00 91 1044.0
20260903031856 70 117 0.0 1.0 0.00 0.00 0.00 89 1044.1
20260903031355 70 117 0.0 0.0 0.00 0.00 0.00 87 1043.9
20260903030851 70 117 0.0 0.0 0.00 0.00 0.00 87 1044.0
20260903030347 70 117 0.0 1.0 0.00 0.00 0.00 88 1044.0
20260903025843 71 117 0.0 0.0 0.00 0.00 0.00 87 1044.0
20260903025338 71 117 0.0 0.0 0.00 0.00 0.00 86 1043.9
20260903024837 71 116 1.0 2.0 0.00 0.00 0.00 86 1043.9
20260903024332 71 123 0.0 1.0 0.00 0.00 0.00 87 1044.1
20260903023828 71 124 0.0 1.0 0.00 0.00 0.00 87 1044.2
20260903023323 71 124 0.0 0.0 0.00 0.00 0.00 87 1043.9
20260903022818 71 124 0.0 1.0 0.00 0.00 0.00 85 1043.9
20260903022317 71 125 0.0 0.0 0.00 0.00 0.00 84 1043.9
20260903021811 72 113 0.0 0.0 0.00 0.00 0.00 82 1043.9
20260903021307 73 141 0.0 0.0 0.00 0.00 0.00 77 1043.8
20260903020806 72 141 0.0 0.0 0.00 0.00 0.00 79 1043.7
20260903020301 72 140 0.0 1.0 0.00 0.00 0.00 81 1043.9
20260903015756 73 141 0.0 0.0 0.00 0.00 0.00 78 1043.7
20260903015252 73 141 0.0 0.0 0.00 0.00 0.00 77 1043.6
20260903014747 73 141 0.0 0.0 0.00 0.00 0.00 77 1043.4
20260903014247 73 141 0.0 1.0 0.00 0.00 0.00 77 1043.3
20260903013742 73 141 0.0 0.0 0.00 0.00 0.00 76 1043.3
20260903013241 73 142 0.0 0.0 0.00 0.00 0.00 77 1043.2
20260903012739 73 142 0.0 0.0 0.00 0.00 0.00 76 1043.4
20260903012234 73 142 0.0 0.0 0.00 0.00 0.00 76 1043.6
20260903011734 73 142 0.0 0.0 0.00 0.00 0.00 74 1043.4
20260903011227 74 142 0.0 0.0 0.00 0.00 0.00 74 1043.4
20260903010723 74 142 0.0 0.0 0.00 0.00 0.00 74 1043.4
20260903010223 75 142 0.0 0.0 0.00 0.00 0.00 77 1043.4
20260903005722 75 142 0.0 0.0 0.00 0.00 0.00 73 1043.2
20260903005217 75 142 0.0 0.0 0.00 0.00 0.00 69 1043.3
20260903004713 76 142 0.0 0.0 0.00 0.00 0.00 70 1043.1
20260903004208 77 142 0.0 0.0 0.00 0.00 0.00 69 1043.1
20260903003704 77 142 0.0 0.0 0.00 0.00 0.00 68 1043.1
20260903003159 78 142 0.0 0.0 0.00 0.00 0.00 69 1043.0
20260903002654 78 142 0.0 0.0 0.00 0.00 0.00 68 1042.9
20260903002148 78 142 0.0 0.0 0.00 0.00 0.00 67 1043.2
20260903001643 78 142 0.0 0.0 0.00 0.00 0.00 68 1043.1
20260903001137 79 142 0.0 0.0 0.00 0.00 0.00 65 1043.1
20260903000633 79 142 0.0 0.0 0.00 0.00 0.00 65 1043.2
20260903000132 79 142 0.0 0.0 0.00 0.00 0.00 65 1043.0
20260902235631 80 142 0.0 0.0 0.00 0.00 0.00 64 1043.2
20260902235126 80 142 0.0 0.0 0.00 0.00 0.00 61 1043.3
20260902234620 81 142 0.0 0.0 0.00 0.00 0.00 60 1043.5
20260902234119 82 142 0.0 0.0 0.00 0.00 0.00 59 1043.0
20260902233614 82 142 0.0 0.0 0.00 0.00 0.00 56 1043.3
20260902233114 83 142 0.0 0.0 0.00 0.00 0.00 56 1043.2
20260902232608 85 142 0.0 1.0 0.00 0.00 0.00 55 1043.2
20260902232102 86 142 0.0 1.0 0.00 0.00 0.00 53 1043.3
20260902231601 86 142 0.0 0.0 0.00 0.00 0.00 52 1043.1
20260902231056 86 142 0.0 0.0 0.00 0.00 0.00 52 1042.9
20260902230551 85 142 0.0 0.0 0.00 0.00 0.00 53 1043.2
20260902230050 85 141 0.0 0.0 0.00 0.00 0.00 54 1043.3
20260902225545 85 140 0.0 0.0 0.00 0.00 0.00 53 1043.2
20260902225045 86 122 1.0 1.0 0.00 0.00 0.00 54 1043.2
20260902224543 87 158 0.0 1.0 0.00 0.00 0.00 52 1043.3
20260902224040 86 158 0.0 1.0 0.00 0.00 0.00 52 1043.2
20260902223536 86 161 0.0 1.0 0.00 0.00 0.00 49 1043.2
20260902223035 88 162 0.0 1.0 0.00 0.00 0.00 50 1043.3
20260902222533 88 152 0.0 1.0 0.00 0.00 0.00 48 1043.2
20260902222032 87 164 1.0 2.0 0.00 0.00 0.00 48 1043.3
20260902221527 87 165 0.0 1.0 0.00 0.00 0.00 51 1043.4
20260902221022 87 161 0.0 1.0 0.00 0.00 0.00 49 1043.4
20260902220517 87 160 0.0 1.0 0.00 0.00 0.00 52 1043.4
20260902220012 88 138 0.0 1.0 0.00 0.00 0.00 51 1043.3
20260902215508 89 158 0.0 2.0 0.00 0.00 0.00 46 1043.4
20260902215003 89 167 1.0 1.0 0.00 0.00 0.00 47 1043.2
20260902214503 89 167 0.0 1.0 0.00 0.00 0.00 47 1043.1
20260902214001 88 167 0.0 1.0 0.00 0.00 0.00 51 1043.4
20260902213458 88 154 0.0 2.0 0.00 0.00 0.00 49 1043.4
20260902212956 88 149 1.0 2.0 0.00 0.00 0.00 52 1043.2
20260902212453 89 170 1.0 1.0 0.00 0.00 0.00 49 1043.3
20260902211949 88 169 1.0 1.0 0.00 0.00 0.00 49 1043.3
20260902211444 89 169 0.0 1.0 0.00 0.00 0.00 48 1043.3
20260902210939 88 159 0.0 1.0 0.00 0.00 0.00 49 1043.3
20260902210434 88 164 1.0 2.0 0.00 0.00 0.00 49 1043.7
20260902205932 87 146 0.0 2.0 0.00 0.00 0.00 51 1043.6
20260902205428 88 156 1.0 1.0 0.00 0.00 0.00 47 1043.4
20260902204924 87 170 0.0 1.0 0.00 0.00 0.00 49 1043.5
20260902204423 87 115 2.0 2.0 0.00 0.00 0.00 48 1043.5
20260902203919 87 173 1.0 2.0 0.00 0.00 0.00 47 1043.4
20260902203414 87 97 1.0 2.0 0.00 0.00 0.00 49 1043.5
20260902202913 88 169 1.0 1.0 0.00 0.00 0.00 46 1043.4
20260902202409 89 168 0.0 2.0 0.00 0.00 0.00 46 1043.8
20260902201906 88 168 0.0 1.0 0.00 0.00 0.00 47 1043.7
20260902201405 88 152 0.0 1.0 0.00 0.00 0.00 49 1043.7
20260902200900 86 161 0.0 1.0 0.00 0.00 0.00 49 1043.7
20260902200355 86 147 1.0 3.0 0.00 0.00 0.00 54 1043.8
20260902195850 86 127 0.0 3.0 0.00 0.00 0.00 48 1043.7
20260902195349 85 161 0.0 2.0 0.00 0.00 0.00 50 1043.7
20260902194845 86 108 1.0 3.0 0.00 0.00 0.00 52 1044.0
20260902194339 87 156 1.0 1.0 0.00 0.00 0.00 50 1043.8
20260902193835 86 166 1.0 2.0 0.00 0.00 0.00 51 1044.0
20260902193331 86 160 2.0 2.0 0.00 0.00 0.00 50 1044.0
20260902192829 87 145 0.0 1.0 0.00 0.00 0.00 51 1044.1
20260902192328 86 164 1.0 2.0 0.00 0.00 0.00 51 1044.2
20260902191822 86 172 1.0 2.0 0.00 0.00 0.00 48 1044.2
20260902191318 86 137 1.0 1.0 0.00 0.00 0.00 53 1044.3
20260902190813 86 180 2.0 2.0 0.00 0.00 0.00 52 1044.3
20260902190312 86 140 0.0 1.0 0.00 0.00 0.00 52 1044.5
20260902185808 87 156 0.0 1.0 0.00 0.00 0.00 52 1044.5
20260902185306 86 170 1.0 1.0 0.00 0.00 0.00 53 1044.8
20260902184759 84 143 0.0 1.0 0.00 0.00 0.00 54 1044.8
20260902184254 84 173 1.0 2.0 0.00 0.00 0.00 54 1045.0
20260902183750 84 161 1.0 2.0 0.00 0.00 0.00 56 1044.8
20260902183246 82 167 1.0 1.0 0.00 0.00 0.00 58 1044.8
20260902182742 82 139 0.0 1.0 0.00 0.00 0.00 63 1045.1
20260902182238 80 120 0.0 2.0 0.00 0.00 0.00 61 1045.0
20260902181735 84 65 1.0 5.0 0.00 0.00 0.00 58 1045.2
20260902181234 82 164 0.0 2.0 0.00 0.00 0.00 59 1045.1
20260902180729 81 133 1.0 1.0 0.00 0.00 0.00 60 1045.0
20260902180224 83 52 2.0 2.0 0.00 0.00 0.00 60 1045.1
20260902175719 83 149 1.0 2.0 0.00 0.00 0.00 59 1044.9
20260902175215 82 149 1.0 1.0 0.00 0.00 0.00 60 1044.9
20260902174711 80 154 0.0 2.0 0.00 0.00 0.00 63 1045.0
20260902174207 81 172 1.0 3.0 0.00 0.00 0.00 61 1045.0
20260902173702 82 173 1.0 3.0 0.00 0.00 0.00 58 1045.1
20260902173156 81 161 1.0 2.0 0.00 0.00 0.00 62 1044.9
20260902172651 82 32 3.0 5.0 0.00 0.00 0.00 59 1045.2
20260902172150 81 164 1.0 2.0 0.00 0.00 0.00 56 1045.0
20260902171645 80 139 1.0 2.0 0.00 0.00 0.00 61 1045.1
20260902171141 79 91 1.0 2.0 0.00 0.00 0.00 63 1045.1
20260902170637 80 146 1.0 2.0 0.00 0.00 0.00 65 1045.1
20260902170132 79 163 1.0 1.0 0.00 0.00 0.00 64 1045.3
20260902165627 78 92 1.0 2.0 0.00 0.00 0.00 67 1045.3
20260902165126 80 148 0.0 0.0 0.00 0.00 0.00 64 1045.1
20260902164622 80 165 0.0 2.0 0.00 0.00 0.00 65 1045.0
20260902164121 80 158 1.0 3.0 0.00 0.00 0.00 65 1045.3
20260902163616 79 92 1.0 2.0 0.00 0.00 0.00 65 1045.2
20260902163115 79 54 0.0 2.0 0.00 0.00 0.00 66 1045.5
20260902162614 78 84 1.0 5.0 0.00 0.00 0.00 69 1045.4
20260902162109 78 169 0.0 2.0 0.00 0.00 0.00 69 1045.3
20260902161604 76 157 1.0 1.0 0.00 0.00 0.00 70 1045.4
20260902161100 77 58 5.0 6.0 0.00 0.00 0.00 71 1045.6
20260902160555 77 148 2.0 2.0 0.00 0.00 0.00 72 1045.4
20260902160051 76 137 1.0 3.0 0.00 0.00 0.00 72 1045.4
20260902155544 76 139 0.0 1.0 0.00 0.00 0.00 71 1045.9
20260902155043 76 119 0.0 1.0 0.00 0.00 0.00 71 1045.2
20260902154538 77 157 0.0 1.0 0.00 0.00 0.00 71 1045.4
20260902154033 77 185 2.0 2.0 0.00 0.00 0.00 71 1045.4
20260902153531 78 145 2.0 2.0 0.00 0.00 0.00 69 1045.2
20260902153027 78 162 1.0 1.0 0.00 0.00 0.00 69 1045.1
20260902152523 77 142 0.0 1.0 0.00 0.00 0.00 69 1045.1
20260902152019 75 158 1.0 1.0 0.00 0.00 0.00 73 1045.1
20260902151515 76 126 0.0 1.0 0.00 0.00 0.00 73 1045.1
20260902151014 76 122 1.0 2.0 0.00 0.00 0.00 72 1045.1
20260902150509 76 108 1.0 2.0 0.00 0.00 0.00 72 1044.9
20260902150004 75 151 0.0 1.0 0.00 0.00 0.00 73 1044.9
20260902145459 75 121 1.0 2.0 0.00 0.00 0.00 72 1044.9
20260902144953 75 181 2.0 2.0 0.00 0.00 0.00 72 1044.9
20260902144450 74 137 0.0 1.0 0.00 0.00 0.00 75 1045.1
20260902143944 74 134 0.0 1.0 0.00 0.00 0.00 76 1045.2
20260902143440 72 139 0.0 1.0 0.00 0.00 0.00 78 1045.3
20260902142934 72 77 1.0 2.0 0.00 0.00 0.00 79 1045.2
20260902142430 72 107 1.0 2.0 0.00 0.00 0.00 80 1045.3
20260902141926 71 147 1.0 2.0 0.00 0.00 0.00 80 1045.2
20260902141421 71 142 0.0 1.0 0.00 0.00 0.00 82 1045.3
20260902140920 70 145 0.0 1.0 0.00 0.00 0.00 84 1045.3
20260902140416 70 137 0.0 1.0 0.00 0.00 0.00 84 1045.5
20260902135910 69 169 1.0 1.0 0.00 0.00 0.00 85 1045.5
20260902135406 69 137 0.0 0.0 0.00 0.00 0.00 88 1045.4
20260902134904 68 129 0.0 1.0 0.00 0.00 0.00 88 1045.3
20260902134400 68 145 0.0 1.0 0.00 0.00 0.00 89 1045.3
20260902133855 67 143 0.0 1.0 0.00 0.00 0.00 90 1045.2
20260902133355 66 121 0.0 0.0 0.00 0.00 0.00 92 1045.4
20260902132850 66 120 1.0 1.0 0.00 0.00 0.00 93 1045.4
20260902132345 66 128 0.0 0.0 0.00 0.00 0.00 93 1045.5
20260902131841 66 152 0.0 0.0 0.00 0.00 0.00 92 1045.3
20260902131337 66 152 0.0 1.0 0.00 0.00 0.00 92 1045.6
20260902130836 66 152 0.0 1.0 0.00 0.00 0.00 91 1045.6
20260902130333 66 153 1.0 1.0 0.00 0.00 0.00 92 1045.6
20260902125827 66 149 0.0 1.0 0.00 0.00 0.00 93 1045.6
20260902125323 65 157 1.0 1.0 0.00 0.00 0.00 94 1045.5
20260902124819 65 128 0.0 0.0 0.00 0.00 0.00 95 1045.3
20260902124315 64 128 0.0 0.0 0.00 0.00 0.00 96 1045.6
20260902123809 64 128 0.0 0.0 0.00 0.00 0.00 96 1045.8
20260902123306 64 128 0.0 0.0 0.00 0.00 0.00 96 1045.9
20260902122805 64 132 0.0 0.0 0.00 0.00 0.00 97 1046.4
20260902122305 64 134 0.0 0.0 0.00 0.00 0.00 97 1046.0
20260902121800 64 137 0.0 0.0 0.00 0.00 0.00 97 1046.4
20260902121255 64 142 0.0 0.0 0.00 0.00 0.00 97 1046.3
20260902120751 63 124 0.0 0.0 0.00 0.00 0.00 97 1046.2
20260902120247 63 124 0.0 1.0 0.00 0.00 0.00 97 1046.0
20260902115742 63 123 0.0 0.0 0.00 0.00 0.00 97 1045.9
20260902115238 63 123 0.0 0.0 0.00 0.00 0.00 97 1046.0
20260902114734 63 123 0.0 0.0 0.00 0.00 0.00 97 1045.9
20260902114230 63 123 0.0 0.0 0.00 0.00 0.00 97 1045.7
20260902113724 63 123 0.0 0.0 0.00 0.00 0.00 97 1045.7
20260902113219 63 121 1.0 1.0 0.00 0.00 0.00 97 1045.6
20260902112719 63 136 0.0 1.0 0.00 0.00 0.00 96 1045.5
20260902112216 64 150 0.0 1.0 0.00 0.00 0.00 97 1045.8
20260902111711 64 162 1.0 1.0 0.00 0.00 0.00 97 1045.8
20260902111207 64 128 0.0 0.0 0.00 0.00 0.00 97 1045.5
20260902110703 63 128 0.0 0.0 0.00 0.00 0.00 96 1045.3
20260902110159 63 128 0.0 0.0 0.00 0.00 0.00 96 1045.0
20260902105658 63 128 0.0 0.0 0.00 0.00 0.00 96 1044.7
20260902105154 63 128 0.0 0.0 0.00 0.00 0.00 96 1044.8
20260902104649 63 127 0.0 0.0 0.00 0.00 0.00 96 1044.8
20260902104144 63 153 0.0 0.0 0.00 0.00 0.00 95 1044.7
20260902103643 63 153 0.0 0.0 0.00 0.00 0.00 95 1044.6
20260902103138 63 153 0.0 0.0 0.00 0.00 0.00 95 1044.5
20260902102635 63 153 0.0 0.0 0.00 0.00 0.00 95 1044.6
20260902102132 64 153 0.0 0.0 0.00 0.00 0.00 95 1044.6
20260902101627 64 154 0.0 0.0 0.00 0.00 0.00 95 1044.6
20260902101126 63 153 0.0 1.0 0.00 0.00 0.00 96 1044.6
20260902100621 63 124 0.0 1.0 0.00 0.00 0.00 95 1044.6
20260902100116 64 124 0.0 0.0 0.00 0.00 0.00 95 1044.0
20260902095615 64 124 0.0 0.0 0.00 0.00 0.00 95 1044.3
20260902095114 64 123 0.0 1.0 0.00 0.00 0.00 94 1044.3
20260902094609 64 124 0.0 1.0 0.00 0.00 0.00 94 1044.5
20260902094106 64 124 0.0 1.0 0.00 0.00 0.00 94 1044.3
20260902093600 65 124 0.0 0.0 0.00 0.00 0.00 94 1044.6
20260902093054 65 124 0.0 0.0 0.00 0.00 0.00 93 1044.5
20260902092549 65 122 0.0 1.0 0.00 0.00 0.00 92 1044.3
20260902092044 65 125 0.0 0.0 0.00 0.00 0.00 92 1044.7
20260902091539 66 112 1.0 1.0 0.00 0.00 0.00 91 1044.8
20260902091036 66 104 1.0 2.0 0.00 0.00 0.00 90 1045.3
20260902090531 67 120 0.0 1.0 0.00 0.00 0.00 89 1045.3
20260902090030 67 142 0.0 0.0 0.00 0.00 0.00 85 1045.1
20260902085524 67 151 1.0 1.0 0.00 0.00 0.00 86 1045.2
20260902085020 67 147 1.0 2.0 0.00 0.00 0.00 86 1045.5
20260902084516 67 159 2.0 2.0 0.00 0.00 0.00 86 1045.5
20260902084011 66 151 1.0 1.0 0.00 0.00 0.00 87 1045.6
20260902083507 66 151 0.0 1.0 0.00 0.00 0.00 89 1045.3
20260902083001 66 151 0.0 1.0 0.00 0.00 0.00 89 1045.4
20260902082457 66 151 0.0 0.0 0.00 0.00 0.00 88 1045.2
20260902081953 66 151 0.0 0.0 0.00 0.00 0.00 88 1045.2
20260902081449 66 151 0.0 1.0 0.00 0.00 0.00 88 1045.3
20260902080944 66 151 0.0 0.0 0.00 0.00 0.00 88 1045.2
20260902080440 67 151 0.0 0.0 0.00 0.00 0.00 88 1045.2
20260902075939 67 151 0.0 1.0 0.00 0.00 0.00 85 1045.1
20260902075436 67 151 0.0 1.0 0.00 0.00 0.00 84 1045.0
20260902074931 67 150 0.0 1.0 0.00 0.00 0.00 84 1045.1
20260902074426 67 152 1.0 1.0 0.00 0.00 0.00 86 1045.2
20260902073921 67 149 0.0 1.0 0.00 0.00 0.00 89 1045.1
20260902073417 67 149 0.0 1.0 0.00 0.00 0.00 89 1045.2
20260902072913 67 149 0.0 1.0 0.00 0.00 0.00 88 1045.2
20260902072409 67 149 0.0 1.0 0.00 0.00 0.00 88 1045.3
20260902071905 66 136 0.0 0.0 0.00 0.00 0.00 89 1045.3
20260902071404 66 136 0.0 1.0 0.00 0.00 0.00 90 1045.0
20260902070901 66 135 0.0 0.0 0.00 0.00 0.00 90 1045.1
20260902070356 65 135 0.0 0.0 0.00 0.00 0.00 91 1045.0
20260902065854 66 134 0.0 0.0 0.00 0.00 0.00 94 1045.1
20260902065350 66 134 0.0 0.0 0.00 0.00 0.00 94 1045.2
20260902064845 66 134 0.0 0.0 0.00 0.00 0.00 93 1045.2
20260902064341 67 134 0.0 1.0 0.00 0.00 0.00 92 1045.1
20260902063837 68 134 0.0 1.0 0.00 0.00 0.00 90 1045.1
20260902063336 68 132 0.0 1.0 0.00 0.00 0.00 86 1045.1
20260902062831 67 136 0.0 1.0 0.00 0.00 0.00 83 1045.2
20260902062325 66 137 0.0 0.0 0.00 0.00 0.00 85 1045.1
20260902061825 65 148 0.0 0.0 0.00 0.00 0.00 89 1045.2
20260902061320 66 146 0.0 0.0 0.00 0.00 0.00 92 1044.9
20260902060816 66 146 0.0 0.0 0.00 0.00 0.00 93 1045.1
20260902060312 66 146 0.0 0.0 0.00 0.00 0.00 94 1045.2
20260902055808 66 146 0.0 0.0 0.00 0.00 0.00 94 1045.2
20260902055307 66 146 0.0 0.0 0.00 0.00 0.00 94 1045.1
20260902054759 66 146 0.0 1.0 0.00 0.00 0.00 93 1045.3
20260902054255 66 142 0.0 0.0 0.00 0.00 0.00 92 1045.4
20260902053750 66 149 0.0 0.0 0.00 0.00 0.00 93 1045.4
20260902053249 66 131 0.0 0.0 0.00 0.00 0.00 93 1045.4
20260902052748 66 132 0.0 0.0 0.00 0.00 0.00 92 1045.6
20260902052244 67 132 0.0 0.0 0.00 0.00 0.00 93 1045.5
20260902051744 67 132 0.0 0.0 0.00 0.00 0.00 92 1045.3
20260902051238 68 132 0.0 1.0 0.00 0.00 0.00 91 1045.5
20260902050733 68 146 0.0 0.0 0.00 0.00 0.00 89 1045.6